Wind_Speed
48 49 50 50 51 51 52 53 54 54 55 56 56 57 58 58 59 59 60 60 61 61 62 63 65 67 67 67 65 64 63 63 62 60 60 61 57 53 55 55 54 55 55 56 58 58 59 59 59 59 61 62 64 65 66 66 66 66 63 59 55 54 54 55 56 58 58 59 61 63 63 63 63 64 64 62 60 59 57 54 52 50 49 48 47 47 46 45
52 52 53 54 55 55 56 57 57 58 59 59 60 61 61 62 62 63 63 64 64 65 65 65 65 66 68 69 70 69 68 67 66 65 66 64 59 58 59 56 56 56 55 56 57 57 58 58 58 58 58 59 60 62 64 65 65 64 62 59 55 54 55 56 58 59 60 61 63 64 64 64 63 64 64 62 61 59 57 55 53 51 50 48 47 47 46 44
56 56 56 57 58 58 60 61 61 62 63 63 64 65 65 66 67 67 67 68 68 68 69 69 68 68 68 69 72 73 73 72 71 71 71 67 64 64 62 60 60 59 58 58 57 56 56 56 56 57 57 57 57 58 60 62 62 62 61 58 55 56 57 58 59 60 62 63 64 65 65 65 64 65 65 64 62 59 57 56 55 53 51 50 49 48 46 44
58 60 61 61 61 62 63 64 65 66 67 68 68 69 69 70 71 71 72 72 72 72 72 72 72 72 71 71 71 73 75 76 76 76 75 72 70 68 66 64 64 63 61 60 59 57 55 55 55 55 56 56 56 57 56 57 58 60 59 57 56 58 59 60 61 62 63 65 67 67 66 65 65 65 65 64 62 59 58 57 56 55 53 52 51 49 48 45
56 59 62 64 65 66 67 68 69 70 72 72 73 74 74 75 75 76 76 76 77 77 77 76 76 76 76 76 75 74 75 77 80 81 79 76 74 71 69 68 68 68 65 63 62 60 58 56 56 55 54 54 55 55 54 55 56 56 56 56 57 59 60 62 63 64 66 67 69 69 67 66 66 66 64 63 61 59 58 57 56 55 54 53 51 49 48 47
54 57 61 64 67 69 70 72 73 75 76 78 79 79 80 80 81 81 81 81 82 82 82 81 81 80 80 80 80 78 78 78 80 81 81 79 78 75 74 73 73 72 69 67 65 64 62 59 58 56 54 54 53 53 53 56 56 54 54 55 57 58 61 62 64 66 68 69 70 71 69 68 67 66 65 63 60 59 58 56 56 55 54 53 50 49 48 47
51 55 58 62 66 69 72 75 77 79 81 82 84 85 86 86 87 87 87 87 88 88 88 87 86 85 84 84 84 82 83 83 81 80 81 82 82 81 79 78 78 77 74 71 69 67 65 63 61 60 58 55 53 52 53 56 55 54 53 54 55 57 60 62 64 67 69 70 72 73 71 69 68 66 65 63 61 59 58 57 56 55 54 52 50 49 48 47
49 52 56 60 64 68 72 75 79 82 84 86 88 89 91 92 93 93 93 94 94 94 94 94 93 91 89 88 87 85 87 88 84 81 82 84 85 84 83 82 82 82 79 75 73 71 69 66 65 63 61 58 56 55 55 56 55 53 54 55 55 56 58 61 63 66 68 71 73 73 70 69 69 67 65 63 61 61 60 58 57 56 55 53 51 50 48 47
47 50 54 58 62 66 71 75 79 83 86 88 91 92 94 96 97 98 99 100 101 101 100 100 99 98 95 94 92 89 91 93 88 85 86 85 85 85 85 85 85 85 82 79 76 74 72 70 68 67 64 62 60 58 58 56 53 52 54 56 56 56 57 60 62 64 68 70 72 71 69 69 69 66 64 62 61 62 62 60 59 58 56 54 52 50 49 48
47 50 54 58 62 67 71 76 80 83 86 89 92 95 97 99 101 103 104 105 106 106 106 106 105 104 101 100 98 94 96 97 92 90 90 89 87 85 85 86 87 87 85 82 79 77 75 73 72 70 68 66 63 61 60 57 53 52 54 56 56 57 58 59 60 63 65 67 69 69 68 69 68 64 62 61 62 63 62 60 60 59 57 56 53 52 51 50
48 52 55 60 64 69 74 79 83 86 90 93 96 99 102 104 106 108 110 111 111 112 112 112 111 109 107 105 102 100 104 104 98 94 94 93 91 88 86 86 87 88 87 84 81 79 78 77 75 73 71 69 66 63 62 59 57 55 55 56 56 57 58 58 59 61 63 64 65 66 67 68 65 61 61 62 63 63 62 60 60 59 58 57 54 53 53 52
49 53 57 62 67 73 78 82 86 90 93 97 100 103 106 108 110 112 113 114 114 114 114 114 114 113 111 109 106 107 112 112 105 99 96 95 94 92 89 88 87 88 87 86 83 81 80 79 77 75 73 71 68 67 65 62 60 57 55 55 55 55 56 57 59 61 62 62 62 64 64 62 60 60 62 64 64 64 62 61 60 59 58 57 55 54 54 54
53 57 63 68 72 76 79 82 84 86 87 90 92 95 97 100 102 104 105 106 106 106 106 107 109 110 111 111 111 114 119 117 109 104 99 97 97 96 94 91 90 89 88 86 84 83 81 80 78 76 75 73 71 69 66 64 62 59 56 54 54 54 54 56 59 61 62 61 61 61 59 57 58 60 62 63 64 63 62 62 61 60 59 58 56 55 55 55
59 65 69 72 74 75 75 75 75 75 76 78 79 81 84 86 88 89 91 92 92 91 92 93 94 96 99 104 112 120 123 119 112 108 104 100 99 99 98 95 93 91 89 87 86 84 82 80 79 77 75 74 73 71 68 66 64 62 59 56 53 52 52 55 59 60 61 61 62 60 55 54 58 59 59 60 61 62 61 62 62 60 60 59 57 57 56 56
67 71 73 73 72 70 67 67 68 68 69 70 72 73 75 77 78 79 80 80 80 79 80 81 81 82 83 88 103 115 120 119 115 111 108 104 102 102 100 98 96 93 91 90 87 85 83 81 79 78 76 75 74 72 69 67 65 63 59 55 52 50 51 54 57 58 59 60 62 58 53 55 58 57 57 57 58 58 58 59 60 59 60 60 59 59 58 58
72 74 74 71 66 63 62 62 63 64 64 65 65 67 68 69 70 71 71 70 68 68 70 71 72 72 73 79 93 103 109 115 115 112 110 108 106 104 101 100 99 97 94 92 89 86 84 82 80 79 77 76 74 72 70 68 66 62 59 56 54 52 51 54 56 56 58 59 59 56 53 57 59 56 56 56 56 56 55 56 57 57 58 59 59 59 60 60
76 75 71 66 62 60 59 60 59 59 59 59 59 61 62 63 64 64 64 62 59 59 61 62 62 63 67 76 86 93 100 108 109 109 111 110 108 106 103 101 101 100 98 94 91 87 84 82 80 78 76 75 75 74 71 67 64 60 58 56 55 54 53 54 56 56 57 57 55 54 53 57 59 57 56 56 56 55 54 54 54 55 56 57 58 58 60 60
79 74 68 63 61 59 58 56 55 54 54 54 54 55 56 57 58 58 58 56 53 54 55 55 55 56 62 71 79 87 95 99 100 102 107 110 110 108 105 103 102 102 100 96 92 89 85 83 80 78 75 73 73 72 68 63 61 60 59 57 57 56 54 54 56 56 56 55 54 53 52 55 57 56 56 56 56 55 54 54 54 54 54 55 55 56 58 59
79 72 66 63 61 59 56 54 51 50 49 49 49 49 50 51 53 53 53 50 49 51 50 49 50 52 58 65 72 80 87 91 93 94 100 106 109 108 107 105 103 103 102 98 93 90 87 84 81 76 71 69 69 69 66 63 62 63 62 61 61 60 58 58 60 59 57 55 52 50 51 54 56 55 55 55 55 55 54 54 54 53 52 52 53 54 56 58
79 71 67 65 62 58 55 52 50 48 47 46 45 45 45 47 48 48 49 45 43 47 46 43 47 50 54 59 65 72 78 85 88 88 91 99 104 107 108 106 104 103 102 99 95 92 89 85 80 74 70 67 68 70 68 66 65 66 65 64 63 62 61 61 62 61 58 55 52 50 51 53 54 53 53 53 53 53 53 53 53 53 53 53 54 55 56 56
78 72 68 66 62 58 55 52 49 47 45 43 42 42 42 43 43 44 46 43 38 41 43 40 43 48 50 54 59 63 70 78 82 83 86 91 98 104 108 108 106 104 101 100 98 95 91 85 79 75 73 71 71 71 70 68 67 67 66 64 63 63 63 64 64 62 59 56 53 51 50 51 51 51 50 49 49 49 50 51 52 53 53 54 55 55 54 52
79 73 71 67 63 58 54 53 50 46 44 42 40 39 40 40 39 39 41 42 37 36 38 37 40 45 48 50 53 58 66 73 79 82 83 87 93 100 107 109 108 105 103 101 100 96 90 84 80 78 76 73 71 72 71 68 67 67 66 64 63 63 64 66 65 63 59 56 54 51 49 50 50 48 46 45 45 46 47 48 49 50 50 52 53 53 51 50
80 75 73 69 64 57 54 53 50 47 44 42 40 38 38 38 37 36 36 37 37 34 33 35 38 42 45 46 50 56 63 70 76 79 79 84 90 96 104 109 110 108 105 102 99 95 89 85 83 80 77 74 72 71 70 67 66 66 64 63 61 62 65 65 64 62 59 56 54 51 50 50 49 47 44 43 43 44 44 46 46 46 47 48 48 48 47 49
82 76 74 70 65 58 54 52 50 47 45 42 40 37 37 37 36 34 33 33 33 32 31 32 36 39 42 44 47 54 60 65 71 72 74 82 89 94 101 107 110 109 105 101 98 95 91 88 86 83 79 76 73 71 69 66 64 64 62 61 60 61 63 65 65 63 60 57 54 53 51 49 47 45 43 42 42 42 43 44 44 44 45 45 44 44 45 47
84 78 75 71 66 59 55 52 50 48 46 43 40 37 35 35 35 33 31 30 29 29 28 30 33 37 40 41 45 50 56 61 65 67 72 81 88 92 97 104 108 109 106 103 99 97 94 91 89 85 81 77 73 71 69 65 64 63 61 60 60 60 63 64 63 61 59 56 54 53 50 48 46 44 43 42 42 41 42 42 41 42 41 40 41 41 43 46
86 79 76 72 66 61 56 53 50 48 45 43 41 38 35 33 32 31 29 27 26 27 27 28 31 34 37 39 42 47 52 57 60 63 71 80 86 89 94 100 105 108 107 104 101 98 95 92 90 87 82 78 74 71 70 67 65 64 62 62 61 61 62 62 59 56 53 52 53 52 49 48 47 45 44 43 42 43 43 41 41 40 38 38 39 40 42 44
89 81 78 73 66 61 57 54 50 47 44 42 41 39 36 32 30 28 27 25 24 25 25 26 29 31 33 36 39 43 49 52 54 60 68 77 82 86 90 95 101 106 107 106 103 99 96 93 91 88 83 79 75 72 71 68 66 65 64 64 63 62 62 60 56 53 50 50 51 49 48 48 47 46 46 45 44 44 43 41 41 40 39 38 39 41 43 43
92 84 79 74 67 61 57 55 51 47 44 41 40 38 35 31 28 27 24 23 23 23 23 24 26 28 30 33 37 41 45 47 50 57 66 73 79 83 87 92 98 104 106 106 102 98 96 94 91 88 84 80 75 74 73 70 68 68 68 66 65 65 63 60 56 52 49 49 46 43 44 44 44 45 45 44 43 42 41 42 42 42 41 39 40 43 43 42
94 86 81 76 69 62 58 56 52 48 44 40 38 37 33 29 27 27 24 22 22 21 21 22 23 25 28 31 35 38 41 43 47 55 62 69 75 81 85 90 97 103 105 105 103 100 98 95 92 89 85 81 77 77 75 72 70 71 70 68 67 66 64 60 56 52 49 46 42 41 40 40 41 43 42 40 38 38 40 42 43 42 41 39 41 43 42 42
97 88 83 78 71 64 59 57 54 49 44 40 38 35 33 29 27 26 24 22 20 19 19 19 20 22 26 29 32 35 38 40 44 52 60 66 73 79 84 88 94 101 104 105 105 103 101 98 95 91 87 84 81 80 78 75 75 75 72 70 68 67 64 59 55 52 48 44 41 41 40 39 39 39 36 34 35 37 40 41 41 40 39 39 42 43 43 42
99 91 84 80 73 66 61 58 55 50 45 40 37 34 32 30 27 24 22 21 18 17 16 16 17 20 23 26 29 32 36 38 42 50 57 62 70 77 81 85 90 97 102 104 105 104 102 99 96 92 89 86 84 83 80 79 78 76 73 71 69 67 63 59 56 52 47 43 42 41 40 38 36 34 32 32 35 36 37 37 37 38 40 42 43 42 42 42
101 93 86 81 74 67 63 60 56 51 47 42 37 33 30 28 26 23 20 19 16 15 13 13 14 17 20 24 27 30 34 36 41 48 53 58 67 73 78 82 87 93 97 101 103 103 101 99 96 93 90 88 86 84 82 81 78 76 73 71 69 66 63 58 54 50 45 44 43 42 39 36 33 33 33 32 33 33 33 34 35 37 40 40 40 40 40 40
102 96 87 82 76 68 64 61 57 53 48 43 37 33 30 27 24 22 19 16 14 13 11 10 11 14 18 22 25 28 32 34 39 44 50 56 64 71 77 81 85 90 95 98 102 103 101 99 96 93 91 89 86 84 81 78 75 73 71 70 68 65 61 57 53 49 46 45 44 42 39 34 32 34 33 32 33 33 32 33 33 35 36 36 37 37 37 38
101 97 89 83 76 69 65 62 59 54 49 44 39 33 30 27 24 21 18 15 12 10 9 8 9 12 16 20 22 26 29 32 36 41 47 53 61 68 74 78 82 87 93 98 102 102 101 98 95 92 89 88 86 83 80 77 76 74 72 71 69 65 60 57 53 50 47 45 44 42 37 33 32 34 33 33 33 32 31 31 31 31 32 33 34 34 34 36
100 98 90 83 77 70 65 62 59 54 49 45 40 33 29 26 24 21 18 15 11 9 7 5 6 9 13 17 20 24 27 30 34 38 43 50 57 64 70 75 79 84 90 96 101 103 101 98 94 92 89 88 87 85 84 83 80 77 74 72 69 66 63 59 56 52 49 48 46 42 37 34 34 35 36 36 34 33 32 31 30 30 30 32 33 33 34 35
98 98 92 84 78 71 65 62 60 55 49 44 39 34 29 26 24 22 18 14 11 9 6 3 4 7 10 14 18 22 25 29 33 36 41 48 55 62 68 73 77 82 88 94 99 102 101 99 97 94 91 90 89 87 86 84 80 77 73 70 67 66 64 62 58 55 52 50 47 43 39 37 36 37 39 38 36 35 33 31 30 30 30 31 34 35 35 36
96 98 93 85 79 73 66 62 59 54 49 45 40 34 30 28 27 23 19 14 12 10 7 3 1 4 8 11 15 20 23 27 31 34 39 46 53 60 67 71 75 80 86 93 99 101 101 100 98 95 92 92 91 90 88 85 81 77 72 70 69 68 65 62 59 56 53 50 47 44 40 38 37 39 41 39 36 35 33 32 31 29 29 32 35 37 36 36
94 97 93 86 80 74 67 61 57 53 49 45 40 34 31 30 28 24 20 16 13 13 9 5 1 4 6 10 14 18 22 26 29 32 37 44 51 58 64 69 74 79 85 92 99 102 103 102 100 97 95 94 93 91 89 86 83 78 75 74 72 68 64 62 59 56 53 50 47 44 40 37 37 40 42 40 37 36 34 33 31 29 31 34 36 38 37 36
92 95 94 88 81 75 67 60 56 52 48 44 39 34 32 31 28 24 21 17 15 14 12 8 4 4 6 8 13 16 21 25 28 32 37 43 51 58 63 68 73 78 84 92 99 103 104 103 101 100 97 96 94 91 88 85 82 80 78 76 73 68 65 62 59 56 53 50 47 44 40 37 37 40 42 40 38 37 35 33 32 32 34 36 36 36 36 36
91 95 95 90 82 76 68 61 56 52 47 43 39 36 34 31 28 25 22 18 16 17 14 10 8 8 6 7 11 15 19 23 27 32 37 43 50 57 63 68 74 78 84 91 98 102 104 103 103 101 99 95 91 89 86 84 81 79 77 75 72 69 66 63 59 56 54 51 48 45 40 37 38 41 43 40 37 36 36 35 34 35 37 36 34 33 34 35
91 94 95 91 83 77 69 61 57 53 48 44 40 36 33 31 28 25 23 19 16 17 17 13 11 11 9 7 10 15 18 22 26 31 37 43 50 56 61 68 73 78 82 88 96 102 104 104 103 100 96 92 89 88 88 86 82 79 76 74 71 68 66 62 58 56 54 51 49 45 40 38 40 43 43 40 37 36 36 36 36 37 37 35 33 32 33 34
89 92 94 91 84 78 70 62 57 54 49 43 38 34 32 31 29 26 24 21 16 16 19 17 14 13 12 9 9 14 18 22 26 31 37 43 49 55 62 68 73 77 80 87 95 101 103 103 101 98 95 93 91 91 90 87 84 81 78 75 71 68 65 61 58 56 54 51 48 45 41 40 41 43 43 40 37 37 36 36 37 37 36 35 33 33 33 34
86 89 92 91 85 78 72 64 58 55 50 43 37 34 33 32 30 27 25 22 18 16 18 18 16 13 13 12 9 12 17 22 27 32 37 43 49 55 61 67 72 76 80 87 94 100 102 103 101 99 99 98 96 94 91 89 86 82 78 74 70 67 64 61 59 57 54 51 48 45 42 41 42 44 44 41 38 37 36 36 36 37 36 35 35 33 33 34
82 85 89 90 85 79 74 67 60 56 52 45 40 36 34 32 31 28 25 23 19 16 16 18 16 14 13 13 10 11 16 21 27 33 37 42 48 54 60 66 71 75 79 85 93 99 102 103 102 102 102 101 100 97 93 89 84 80 77 73 70 67 65 63 60 57 53 50 47 44 42 42 43 45 44 41 39 37 36 36 37 38 37 37 35 34 34 34
81 83 86 88 85 79 74 68 60 55 52 47 41 36 33 30 29 28 25 22 19 16 15 16 16 14 12 12 11 11 15 19 26 32 38 42 47 53 59 65 70 75 79 84 91 98 102 104 104 103 100 97 95 91 85 80 77 75 74 72 70 68 65 62 59 56 52 49 46 44 43 43 44 46 44 41 39 38 37 38 39 39 38 37 35 35 34 34
80 81 83 86 85 79 73 68 60 54 51 47 42 36 31 28 27 26 25 21 17 15 15 15 15 13 11 12 12 11 14 19 24 30 36 42 47 52 59 64 69 73 78 82 88 95 100 102 102 100 96 92 87 82 78 75 73 72 72 70 69 67 65 62 59 56 53 49 46 45 44 44 45 46 44 41 40 39 38 39 40 39 39 38 37 36 35 34
77 79 81 84 84 79 72 67 61 54 50 47 42 36 31 27 25 25 24 21 17 14 14 15 14 11 10 12 13 12 14 19 24 29 35 42 48 52 58 63 67 71 75 79 84 91 96 98 97 95 93 91 88 84 81 78 76 73 72 70 68 67 64 61 58 55 53 51 48 47 46 45 46 45 44 42 40 40 40 40 41 40 40 39 37 36 34 34
74 76 79 82 83 79 73 67 62 55 50 47 42 36 31 27 25 24 23 21 18 15 13 14 13 10 9 11 13 14 15 19 25 30 36 41 47 52 57 62 66 69 72 75 79 86 92 94 94 93 92 90 89 87 84 81 79 76 73 71 68 66 63 60 58 56 54 52 50 48 47 46 45 44 43 42 41 41 40 40 41 41 41 40 37 35 35 34
74 75 77 79 81 78 72 67 61 54 49 46 41 36 32 29 26 23 22 21 19 15 13 13 12 10 9 11 12 14 16 20 25 30 35 40 45 50 54 59 64 67 69 72 75 82 88 91 93 93 92 89 87 85 83 81 79 77 74 71 68 65 63 61 60 58 55 53 50 49 48 47 46 44 43 42 42 41 41 41 41 41 41 40 38 36 35 34
72 73 74 76 79 78 73 67 62 55 49 44 40 36 32 29 27 24 21 20 19 16 13 11 12 11 10 10 11 13 16 20 25 29 33 38 44 48 53 57 61 64 67 70 73 79 86 90 92 92 91 89 87 84 82 80 78 76 74 71 69 66 64 62 61 59 56 53 51 49 49 48 46 44 43 43 42 42 41 42 42 42 42 40 39 38 36 34
69 70 72 74 77 77 73 67 62 56 50 46 43 38 34 30 28 24 20 18 18 17 13 10 11 12 10 9 10 12 16 20 25 29 33 37 42 47 52 57 59 62 65 68 73 79 85 89 91 91 90 88 86 83 81 79 78 76 73 70 68 65 63 61 60 58 56 53 51 50 50 49 47 46 45 44 44 43 43 43 43 43 43 42 40 39 37 36
67 67 69 72 74 75 72 66 62 56 50 46 42 37 33 29 26 24 20 17 16 16 14 10 10 12 11 8 9 12 16 20 25 29 33 37 41 46 51 55 58 60 64 68 72 78 83 87 88 89 88 87 84 82 81 79 78 75 72 69 67 65 63 61 60 58 56 54 52 51 50 49 48 48 47 46 46 46 45 45 45 45 45 44 42 41 39 37
Wind_Direction
274 274 274 274 274 274 274 274 273 271 270 268 266 264 263 261 260 259 258 256 255 255 253 251 249 247 245 244 243 242 241 240 239 238 237 236 235 234 234 235 235 234 233 233 234 234 234 233 234 235 234 234 235 235 235 235 235 235 235 234 232 230 230 230 230 231 231 234 238 241 242 242 243 243 244 245 245 245 244 244 245 245 245 245 247 249 249 250
277 276 275 275 274 274 274 274 273 272 271 270 268 266 265 263 261 259 258 256 255 254 253 252 250 248 246 244 243 241 240 239 239 238 237 237 236 234 234 234 235 235 234 233 233 234 234 234 234 235 235 235 234 235 236 235 235 235 235 233 231 230 229 229 229 230 230 233 237 240 241 241 242 242 243 244 246 246 246 244 244 245 245 245 246 249 250 250
279 278 277 276 275 274 274 273 272 272 270 269 268 267 265 264 262 260 259 257 255 254 253 252 251 250 247 245 243 242 241 239 238 238 237 237 236 235 235 234 234 235 234 234 233 233 234 235 234 234 235 235 235 235 236 236 236 236 235 233 231 230 229 228 229 229 230 232 236 239 240 241 242 242 242 243 245 246 247 246 245 245 246 246 246 248 250 251
279 278 277 276 275 274 273 273 272 271 270 269 268 266 265 263 262 260 259 257 256 254 253 252 251 250 249 247 244 242 241 240 238 238 237 236 235 235 235 234 235 235 234 235 235 234 234 234 235 234 235 235 235 235 235 236 236 235 235 233 230 229 228 228 228 229 230 232 235 238 239 240 241 242 242 242 244 246 247 248 247 246 246 247 247 248 249 250
277 276 275 275 274 274 273 272 272 271 270 269 268 266 265 263 262 260 259 257 256 254 252 251 250 249 248 247 246 244 241 239 239 238 237 236 235 234 234 235 236 236 235 235 236 235 234 234 235 235 235 235 235 235 235 235 235 234 234 232 230 229 228 228 228 228 229 231 234 237 238 239 240 241 242 243 243 245 247 248 248 248 247 247 247 248 248 249
277 275 274 273 273 273 273 272 272 271 270 269 268 267 265 264 262 261 259 258 256 255 253 251 249 248 247 246 246 245 243 240 239 238 238 237 236 235 234 234 236 236 236 235 235 235 234 234 235 236 235 235 235 235 235 235 234 232 232 231 229 228 228 228 228 228 229 231 233 236 237 237 239 240 241 242 243 244 246 247 248 248 247 246 246 246 247 247
280 277 275 273 273 272 272 272 271 271 270 269 268 267 266 265 264 262 261 259 258 256 255 253 251 249 247 245 245 244 244 243 240 238 237 237 236 235 233 233 234 236 235 235 235 235 235 234 234 236 236 235 235 234 235 235 233 231 231 231 229 228 228 228 228 229 230 231 233 235 236 237 239 239 240 242 242 243 245 246 247 248 247 246 245 245 246 246
286 281 278 276 274 273 272 271 271 270 269 269 268 267 266 265 264 263 262 261 259 258 257 255 254 252 250 247 245 243 243 243 242 239 237 236 235 234 234 233 234 235 235 234 234 235 235 234 234 235 236 236 235 235 234 235 233 230 230 230 229 228 228 228 228 229 230 231 233 235 236 237 239 239 240 241 242 243 244 245 246 247 248 247 246 246 246 246
292 287 283 280 278 276 274 273 271 270 269 268 268 267 266 265 264 263 262 261 260 259 258 257 255 254 253 251 249 245 243 243 242 240 238 236 235 233 233 234 234 235 235 234 234 234 234 234 234 234 234 235 235 235 234 234 233 230 230 230 229 228 228 228 229 229 230 232 233 235 236 237 239 239 240 241 242 243 243 244 245 246 247 247 246 246 246 246
295 290 287 284 281 279 277 275 273 272 271 270 269 268 267 266 265 264 263 262 261 260 259 258 256 255 254 252 251 249 247 245 242 239 239 238 236 233 232 233 234 235 235 235 233 233 234 234 234 233 233 234 234 235 235 234 233 231 230 229 228 227 228 229 230 231 232 233 234 235 236 237 239 240 241 242 243 243 244 244 245 246 247 247 247 246 246 246
297 292 289 286 283 281 279 277 276 274 273 272 271 270 268 267 266 265 264 263 262 261 259 258 257 256 254 253 252 250 249 248 245 240 238 237 236 234 232 231 232 233 234 234 233 232 233 233 233 233 233 233 234 234 234 233 232 230 230 229 228 228 228 229 231 232 233 234 235 235 236 237 239 240 241 242 243 243 244 244 245 246 247 248 247 247 246 246
299 295 292 289 286 283 281 279 277 276 274 272 271 269 268 267 266 265 265 264 263 262 260 259 258 256 255 253 251 249 248 248 247 243 239 237 236 235 233 231 231 232 232 232 232 231 231 232 232 232 232 232 233 233 233 232 231 230 230 230 229 228 228 229 231 232 234 234 235 236 236 238 239 239 240 241 241 243 243 244 244 245 246 247 247 247 247 246
305 301 298 295 292 289 287 284 281 278 276 273 271 270 268 267 266 266 265 264 263 262 261 259 257 255 254 252 251 248 248 248 247 244 241 237 235 234 233 231 230 230 231 230 230 230 230 230 230 230 231 231 232 232 232 232 231 230 230 229 229 228 228 229 231 232 233 235 236 236 236 237 238 237 238 239 241 242 243 243 243 244 245 245 245 246 246 246
311 308 304 302 299 296 293 289 286 283 280 277 275 273 272 270 269 268 267 266 265 263 261 259 256 253 251 249 248 247 247 247 246 243 241 238 235 233 232 231 230 230 230 230 229 229 229 229 229 229 230 231 231 232 231 231 231 230 229 229 229 228 228 230 231 232 233 234 236 236 235 236 237 236 237 239 240 241 242 243 243 243 244 244 244 244 245 245
316 313 310 308 305 301 298 294 291 288 285 283 280 278 276 274 272 271 269 267 266 264 262 259 255 251 247 244 243 243 244 244 243 241 239 237 234 233 231 230 230 229 229 229 228 228 228 228 228 229 229 230 231 231 231 231 230 230 229 229 229 229 228 230 232 232 233 233 235 235 234 236 237 236 237 238 239 240 241 242 243 243 243 244 244 243 243 244
321 318 316 313 309 306 303 300 296 293 290 287 284 281 279 277 276 274 272 270 268 265 261 258 254 249 244 240 238 239 239 240 240 238 237 235 233 232 230 229 229 229 228 228 228 227 227 228 228 228 228 228 229 230 230 230 230 229 229 228 229 229 228 231 232 232 233 233 234 235 233 235 237 236 236 237 238 239 239 241 242 242 242 243 243 243 243 244
326 323 321 318 315 313 309 305 301 297 293 290 287 284 282 280 278 276 275 273 270 266 261 257 253 248 242 237 235 235 235 236 235 234 234 233 232 231 230 228 227 228 228 227 227 227 226 227 227 227 227 227 227 228 228 229 229 230 230 229 229 230 229 231 233 233 233 234 233 233 232 234 236 235 235 236 237 238 239 239 241 241 241 242 243 243 244 245
330 328 326 323 321 319 314 309 304 300 296 293 289 286 284 282 280 278 276 275 272 267 262 258 254 247 241 236 234 232 232 233 232 230 230 230 230 229 228 227 226 227 227 226 226 226 226 225 226 226 225 225 226 228 228 228 229 229 229 228 228 229 229 231 233 233 234 233 232 231 230 233 235 234 234 235 236 238 238 239 240 241 242 243 244 244 245 246
334 332 331 329 326 323 318 313 309 305 301 297 293 290 287 284 282 280 278 276 274 269 263 258 254 246 239 236 233 231 230 231 230 228 226 227 227 227 226 226 226 226 226 226 225 226 226 225 225 225 224 225 226 226 227 226 226 227 227 225 225 225 225 227 230 230 231 231 231 230 229 231 234 233 233 234 235 236 238 239 240 241 243 244 244 245 245 246
338 336 335 333 331 327 322 318 314 312 308 303 299 296 292 288 285 283 280 277 273 270 265 257 251 246 240 235 233 231 229 230 230 227 224 223 224 224 225 224 224 225 225 224 224 224 225 224 223 223 223 223 224 224 224 223 224 225 225 224 224 224 224 226 228 228 228 229 228 228 228 231 233 233 232 233 234 236 237 239 240 241 241 242 243 244 245 246
341 340 339 337 335 331 326 322 320 317 314 309 305 301 296 292 289 286 284 280 273 268 265 257 249 245 240 235 232 230 228 228 229 226 223 221 221 221 222 223 223 223 224 223 223 223 223 223 222 222 221 220 221 221 222 221 222 223 224 223 223 224 224 226 228 228 228 228 227 226 227 230 233 233 233 234 235 237 238 238 239 240 241 242 244 245 247 249
344 343 343 340 338 335 330 326 324 323 320 315 311 306 300 295 292 287 284 282 277 267 262 256 248 243 239 234 230 227 225 225 226 224 220 219 218 218 219 221 221 221 222 222 222 221 222 221 221 221 220 220 219 219 220 220 220 221 222 222 221 222 224 225 227 228 228 228 228 228 228 230 232 233 233 234 235 237 238 239 240 241 242 244 245 247 249 250
347 346 345 343 340 337 333 330 329 327 324 320 315 311 305 301 296 291 285 281 278 270 261 254 248 243 239 234 228 226 223 222 222 221 217 216 216 216 216 218 218 219 220 220 220 220 220 220 220 220 219 219 218 218 219 218 218 219 220 220 219 220 222 224 225 226 227 227 228 228 229 231 233 234 234 234 235 236 238 240 241 242 243 244 246 248 249 249
349 349 348 345 342 339 337 334 332 330 327 323 320 316 310 305 301 296 289 283 278 273 263 254 249 243 239 233 228 225 224 222 221 219 215 214 214 213 213 215 216 217 218 219 219 218 217 217 218 218 218 218 217 217 217 216 216 217 217 217 217 218 221 223 223 224 224 224 225 227 228 231 234 236 237 237 237 238 239 241 241 242 243 244 246 247 247 247
351 351 350 347 344 342 340 338 336 333 329 326 323 319 314 307 303 299 293 287 281 274 265 256 250 244 239 233 228 225 225 223 221 217 212 213 213 212 211 211 213 214 215 216 217 216 216 215 216 216 216 217 216 215 216 214 214 215 214 214 214 216 219 221 222 223 223 224 225 227 228 231 233 236 237 238 239 240 241 242 243 244 245 246 246 246 246 246
353 352 351 349 346 344 342 341 339 336 331 327 325 323 318 311 304 301 297 291 284 276 267 257 250 245 239 233 228 226 225 223 221 215 211 211 212 211 210 209 210 211 213 214 215 215 214 214 215 215 214 214 214 213 213 212 212 212 211 212 213 215 218 221 222 222 223 224 225 226 227 229 231 233 235 236 237 239 241 242 244 245 245 246 245 244 245 245
354 353 353 351 349 346 344 343 342 338 333 329 327 324 321 315 309 306 303 297 288 279 269 258 250 245 239 233 228 226 225 223 220 215 211 210 210 210 209 208 208 209 210 211 213 213 213 213 214 214 213 213 212 211 212 211 210 210 210 210 212 214 217 219 220 221 221 222 224 225 226 228 229 231 233 234 236 238 241 243 244 245 244 244 244 243 243 244
356 355 354 353 351 349 347 346 344 341 336 331 328 325 322 318 315 312 309 303 294 284 272 260 250 243 237 232 227 225 224 221 217 214 212 210 209 208 207 206 206 207 208 209 210 211 212 212 212 213 213 212 211 210 210 210 208 208 209 209 211 213 215 217 218 218 219 221 223 224 226 228 230 233 235 237 239 241 244 245 245 244 244 243 243 243 244 244
357 356 355 354 352 350 349 348 346 343 339 334 331 328 325 324 322 319 314 308 299 289 276 263 251 242 235 229 226 224 222 218 214 214 213 210 207 207 206 205 204 205 206 206 207 209 210 210 210 211 211 210 210 209 209 208 208 208 208 209 211 213 215 216 218 219 219 220 222 223 225 226 229 232 235 238 240 242 243 244 244 244 243 243 244 244 244 244
358 357 356 355 353 352 351 350 348 346 343 339 334 332 330 330 328 322 316 311 302 291 279 266 251 239 232 227 224 222 219 215 212 213 213 209 206 205 205 205 203 203 203 204 205 207 208 209 209 209 208 208 208 208 208 207 208 208 208 209 211 213 215 216 218 219 220 221 222 223 224 225 227 231 234 236 236 237 238 239 240 241 241 241 242 242 243 243
358 358 357 356 354 353 352 352 350 347 345 342 338 337 335 333 330 324 317 312 305 295 282 267 251 237 229 224 220 218 216 211 209 212 212 208 206 205 204 204 203 202 201 201 203 205 207 207 207 207 207 207 207 207 207 207 208 208 208 209 211 213 215 216 218 220 220 222 224 225 226 227 228 231 233 233 235 237 239 241 241 240 240 240 241 242 243 244
359 358 358 357 355 354 353 353 352 350 347 346 343 341 340 337 333 328 321 315 309 299 285 268 251 236 226 221 216 213 211 207 206 210 211 208 205 204 203 203 203 202 200 200 201 203 206 207 206 206 206 206 207 207 207 207 208 209 209 210 212 214 216 218 220 222 222 223 225 227 228 228 229 231 232 233 237 240 241 242 242 241 241 243 244 245 246 246
359 359 358 357 356 355 354 353 353 352 349 348 347 345 345 342 337 333 327 320 313 304 290 269 249 234 224 218 213 209 206 204 204 207 208 206 204 203 202 201 201 200 199 199 200 202 204 206 206 206 205 206 207 208 208 209 210 210 211 213 214 216 218 220 222 223 222 223 226 227 228 228 228 231 233 234 237 239 240 242 243 244 245 245 246 247 247 247
360 359 359 358 357 356 355 354 354 353 351 350 349 348 349 348 345 341 337 331 322 313 298 273 247 231 221 215 209 204 202 201 203 206 206 204 203 202 202 201 200 199 197 197 198 201 203 205 206 206 205 206 207 207 207 209 210 210 211 213 214 216 219 220 221 222 221 223 226 228 229 229 229 232 235 236 238 241 244 246 247 248 248 247 246 247 247 247
0 0 359 358 358 357 356 355 354 354 353 351 350 350 353 356 355 351 347 343 339 330 312 281 247 229 219 211 204 200 197 197 200 203 204 202 201 201 201 200 199 197 197 195 196 198 200 202 205 206 205 205 206 207 207 208 208 208 210 212 213 215 216 218 218 218 218 220 224 227 228 227 227 230 234 235 238 240 243 246 248 249 248 246 245 245 245 244
0 1 360 359 359 358 357 356 355 354 354 352 352 354 357 2 3 360 355 353 355 353 337 301 241 225 216 207 200 196 194 194 197 200 201 200 199 198 199 199 198 196 195 195 195 197 198 200 202 204 204 205 206 206 208 209 208 208 209 210 212 214 216 217 217 217 217 219 222 225 225 224 224 228 232 234 235 238 241 244 246 248 249 246 243 243 244 245
360 1 1 360 359 359 358 357 356 355 355 354 354 358 2 7 8 7 3 4 13 14 2 346 224 201 204 202 196 194 193 192 194 196 197 197 196 195 196 197 196 195 194 194 195 196 197 199 201 203 204 205 206 206 207 208 208 209 208 209 212 214 214 216 218 219 221 222 224 226 226 224 224 228 232 233 235 238 240 242 245 247 248 245 243 243 244 246
360 1 1 1 0 359 358 358 357 356 357 355 355 360 8 11 10 10 10 13 25 29 24 24 63 164 178 191 191 190 190 189 190 192 193 194 193 193 194 194 194 194 193 193 193 195 196 198 200 201 203 204 205 207 208 207 207 208 208 210 212 213 215 216 218 220 223 225 227 228 227 226 226 229 232 233 234 237 238 241 244 245 244 243 243 243 243 245
360 1 2 1 1 360 359 358 358 359 359 357 357 2 11 13 11 13 14 17 31 39 39 44 65 117 149 176 183 184 187 186 186 187 189 191 190 190 191 192 192 193 193 192 193 194 196 197 198 200 202 204 205 206 208 208 208 208 208 210 212 212 214 216 217 219 222 224 226 228 228 227 226 229 233 234 234 236 239 241 242 243 243 245 247 247 245 246
360 1 2 2 1 0 359 358 360 1 0 359 1 6 11 13 12 15 17 19 34 45 44 52 72 91 112 156 173 176 181 182 182 183 184 187 188 188 189 189 191 192 193 192 192 193 195 197 198 200 202 204 205 206 207 209 210 210 211 212 213 214 215 215 216 218 221 223 225 227 226 225 225 229 233 234 234 236 237 239 241 243 246 249 252 251 248 246
359 0 1 2 1 1 360 359 0 3 2 2 5 8 11 13 13 17 20 21 35 50 50 53 71 84 93 125 161 168 173 177 178 180 181 183 186 186 187 188 190 191 192 192 192 193 194 196 198 199 200 203 204 206 207 207 208 209 211 212 213 215 217 218 218 219 221 222 224 226 225 223 225 229 233 233 233 234 236 238 241 244 248 252 254 254 250 246
358 360 1 1 1 1 0 360 1 3 4 4 6 9 13 15 15 17 20 20 30 52 57 55 63 78 89 103 142 160 165 170 174 177 180 182 184 184 185 187 189 190 191 191 192 193 194 196 197 198 199 201 204 206 207 207 207 207 208 210 211 213 216 218 219 220 221 223 224 224 223 223 225 229 232 233 233 234 236 238 242 245 249 252 253 253 251 247
358 359 0 1 1 0 0 1 2 3 4 4 6 11 15 18 17 17 20 21 26 48 62 60 59 71 87 97 122 152 161 166 171 174 178 181 183 184 185 186 188 189 190 190 191 192 193 195 196 197 199 201 203 205 206 206 206 206 207 208 209 211 213 215 217 219 221 222 223 223 222 222 224 228 231 232 233 234 236 238 241 244 247 250 251 252 251 248
358 359 360 1 1 1 0 1 2 3 3 3 6 11 15 18 19 18 20 22 25 40 61 67 65 68 83 96 114 143 158 166 170 172 177 180 182 184 185 186 187 188 190 190 191 191 193 194 196 198 199 201 202 204 205 205 206 206 207 208 209 209 211 212 214 217 219 221 221 222 223 223 225 228 230 231 232 234 235 237 239 242 246 249 252 254 253 251
357 359 360 1 2 1 1 1 1 2 3 3 6 10 14 17 21 21 19 21 25 38 56 68 72 74 86 99 113 137 155 165 171 173 176 179 182 183 185 186 187 188 189 191 190 191 192 194 196 198 200 202 203 204 205 206 207 208 209 210 210 211 211 212 212 213 216 219 220 220 222 223 225 228 230 231 232 233 235 236 238 241 245 249 252 253 253 252
356 358 360 1 2 2 1 0 1 2 3 3 5 8 12 16 22 24 22 21 25 40 57 66 72 80 95 107 116 135 155 165 172 176 177 178 181 184 185 186 187 188 189 191 191 191 192 194 196 197 199 201 204 205 206 206 207 209 211 212 212 212 213 213 213 212 213 215 217 219 220 223 225 228 230 231 231 232 234 235 237 240 243 246 248 251 253 254
356 357 359 0 2 2 2 0 0 2 4 4 4 5 8 14 21 27 27 25 24 38 57 66 71 79 98 114 123 139 158 167 173 177 179 180 181 184 185 186 187 188 189 190 191 191 192 194 195 197 198 200 201 203 205 206 206 207 210 212 213 214 215 215 215 214 213 212 213 217 219 222 224 227 229 230 231 232 233 235 237 240 242 245 248 253 256 258
355 357 359 0 1 2 2 1 0 1 4 5 4 3 6 11 19 27 31 29 27 34 53 66 73 82 102 118 129 143 160 170 174 178 182 182 182 184 185 185 186 187 189 190 190 191 192 193 195 196 198 200 201 202 203 204 205 206 207 209 211 214 216 216 216 216 215 214 213 214 217 220 223 226 228 230 230 232 234 236 239 241 243 245 249 252 255 257
355 356 358 360 0 2 2 1 1 1 4 5 4 4 6 10 16 25 32 34 32 34 47 64 73 83 102 118 133 148 163 172 177 179 182 183 183 183 184 185 185 186 188 189 189 190 191 192 194 196 198 200 202 203 203 204 205 206 207 207 208 210 213 215 216 216 216 215 214 215 217 219 221 224 227 229 230 232 234 236 238 240 242 245 247 250 253 257
354 355 357 359 360 1 2 2 1 1 3 5 6 6 8 11 14 20 29 37 38 35 42 61 75 83 97 116 134 151 166 174 177 179 181 183 183 182 182 184 185 185 186 187 188 189 190 192 194 196 198 200 202 203 204 205 205 206 207 207 207 208 210 212 214 216 216 216 215 216 218 220 221 223 225 228 230 232 233 235 237 239 241 243 245 248 251 254
354 355 356 358 360 1 2 2 1 1 2 4 6 7 8 11 13 15 23 37 44 42 40 55 79 88 96 114 136 154 167 174 176 177 179 181 181 181 181 183 184 184 185 186 187 188 190 192 194 196 198 200 201 203 205 206 207 207 207 208 208 209 210 211 213 215 216 217 216 217 219 222 223 224 225 226 229 231 233 234 236 238 240 242 244 246 248 249
353 354 356 357 359 0 1 2 1 1 3 4 5 6 7 9 12 15 20 32 47 51 47 51 77 90 94 113 140 156 166 173 175 175 175 178 179 180 181 182 182 183 184 185 186 188 189 191 194 196 198 200 201 203 205 206 208 208 207 208 209 209 210 211 212 213 214 214 215 216 219 222 223 224 225 226 228 230 232 234 236 238 240 241 243 245 247 250
Height
10630 10628 10626 10624 10622 10620 10618 10616 10615 10614 10612 10611 10610 10610 10609 10609 10609 10609 10609 10609 10610 10610 10611 10613 10616 10618 10621 10625 10628 10630 10633 10634 10636 10640 10640 10639 10646 10652 10651 10653 10657 10658 10661 10663 10664 10667 10670 10674 10678 10681 10685 10689 10693 10697 10700 10704 10708 10712 10718 10728 10737 10742 10745 10748 10749 10749 10750 10746 10739 10736 10738 10742 10746 10750 10753 10758 10765 10769 10776 10781 10785 10790 10794 10797 10799 10800 10803 10806
10623 10621 10619 10617 10615 10613 10611 10609 10607 10606 10604 10603 10601 10601 10600 10599 10599 10599 10600 10600 10600 10601 10602 10604 10606 10608 10611 10615 10617 10620 10623 10625 10628 10630 10629 10633 10642 10644 10643 10648 10650 10651 10655 10656 10658 10661 10665 10669 10673 10676 10679 10684 10688 10691 10694 10699 10703 10709 10715 10723 10732 10735 10738 10739 10740 10741 10741 10739 10734 10731 10733 10737 10742 10745 10751 10756 10760 10765 10772 10777 10782 10786 10789 10793 10795 10797 10799 10803
10615 10613 10611 10609 10607 10605 10603 10601 10599 10597 10595 10594 10592 10591 10590 10589 10589 10589 10589 10590 10591 10591 10593 10594 10596 10598 10601 10604 10606 10610 10613 10616 10619 10619 10620 10628 10634 10634 10637 10642 10643 10644 10648 10650 10653 10657 10661 10665 10668 10672 10674 10678 10683 10686 10689 10694 10700 10705 10710 10718 10726 10728 10730 10732 10733 10734 10734 10732 10729 10726 10728 10733 10738 10742 10749 10753 10756 10763 10768 10773 10778 10782 10785 10788 10791 10794 10796 10799
10606 10604 10602 10600 10598 10596 10594 10592 10589 10588 10585 10584 10582 10580 10579 10578 10577 10577 10577 10578 10579 10580 10582 10584 10585 10587 10590 10592 10595 10599 10602 10605 10607 10608 10612 10620 10623 10626 10631 10635 10635 10637 10641 10644 10648 10653 10657 10660 10663 10666 10669 10674 10678 10681 10686 10691 10695 10700 10706 10714 10719 10720 10722 10724 10726 10727 10727 10726 10723 10720 10724 10730 10734 10738 10745 10750 10755 10760 10763 10768 10773 10778 10781 10784 10787 10790 10793 10795
10596 10594 10592 10590 10588 10585 10583 10581 10578 10576 10574 10572 10569 10568 10566 10565 10565 10564 10565 10565 10566 10567 10569 10571 10573 10576 10579 10580 10583 10587 10590 10593 10595 10597 10604 10610 10615 10620 10624 10627 10628 10630 10635 10639 10643 10647 10651 10655 10657 10660 10665 10669 10672 10677 10682 10686 10689 10694 10701 10706 10709 10712 10715 10717 10718 10719 10719 10719 10716 10715 10721 10726 10728 10734 10742 10747 10753 10757 10760 10764 10768 10772 10776 10779 10783 10787 10789 10791
10586 10584 10581 10579 10577 10574 10572 10569 10566 10564 10561 10558 10556 10554 10552 10551 10551 10551 10551 10551 10552 10553 10555 10557 10560 10563 10566 10568 10571 10575 10578 10580 10583 10588 10595 10601 10606 10611 10616 10618 10619 10621 10627 10632 10636 10641 10645 10650 10652 10656 10660 10664 10667 10673 10676 10678 10682 10689 10694 10698 10702 10706 10708 10710 10712 10712 10712 10712 10711 10711 10716 10721 10725 10732 10738 10743 10750 10754 10757 10760 10763 10766 10770 10775 10780 10782 10784 10786
10577 10574 10571 10568 10566 10563 10560 10557 10554 10550 10547 10544 10542 10540 10538 10537 10536 10536 10536 10536 10536 10537 10538 10541 10544 10548 10553 10555 10558 10563 10565 10566 10572 10580 10585 10590 10593 10599 10605 10607 10608 10611 10618 10624 10630 10634 10639 10644 10647 10650 10654 10658 10663 10668 10670 10671 10677 10684 10689 10692 10696 10700 10702 10704 10705 10706 10707 10707 10706 10706 10713 10719 10723 10729 10735 10740 10746 10750 10753 10756 10758 10761 10765 10770 10775 10778 10780 10782
10568 10564 10561 10558 10555 10551 10547 10544 10540 10536 10533 10529 10527 10525 10523 10521 10520 10520 10519 10519 10519 10519 10521 10524 10527 10532 10537 10541 10545 10552 10552 10550 10562 10571 10573 10575 10580 10587 10593 10596 10599 10601 10608 10616 10622 10627 10631 10636 10641 10644 10647 10653 10657 10661 10663 10665 10672 10679 10683 10686 10690 10694 10696 10698 10698 10700 10701 10701 10701 10703 10711 10717 10719 10725 10732 10737 10742 10746 10748 10751 10754 10756 10760 10765 10770 10773 10776 10777
10559 10555 10552 10548 10544 10540 10536 10531 10527 10523 10518 10515 10511 10509 10507 10504 10502 10502 10500 10500 10500 10501 10504 10506 10510 10515 10522 10526 10530 10540 10539 10536 10550 10559 10559 10562 10568 10576 10582 10587 10590 10592 10599 10607 10614 10618 10623 10629 10633 10636 10641 10646 10650 10654 10657 10660 10668 10675 10677 10680 10684 10688 10690 10691 10692 10695 10695 10696 10698 10702 10709 10712 10715 10723 10729 10734 10738 10740 10742 10746 10749 10751 10755 10760 10765 10768 10771 10773
10550 10547 10543 10538 10534 10529 10524 10518 10513 10508 10503 10499 10495 10492 10489 10486 10484 10482 10480 10480 10480 10482 10484 10486 10491 10496 10506 10511 10515 10527 10523 10520 10536 10545 10546 10551 10557 10565 10572 10577 10580 10583 10590 10597 10605 10610 10615 10620 10624 10629 10635 10639 10643 10648 10652 10657 10664 10669 10670 10673 10677 10682 10684 10686 10688 10690 10691 10693 10696 10701 10706 10707 10712 10721 10728 10732 10733 10733 10737 10742 10745 10747 10750 10755 10760 10763 10765 10768
10542 10538 10534 10529 10524 10518 10511 10505 10499 10493 10488 10482 10477 10472 10469 10466 10463 10460 10459 10458 10458 10460 10462 10466 10470 10476 10487 10493 10503 10514 10503 10499 10519 10530 10534 10540 10546 10555 10561 10567 10570 10573 10579 10587 10595 10601 10606 10611 10615 10622 10627 10632 10638 10642 10646 10652 10657 10661 10664 10668 10672 10676 10679 10683 10685 10686 10687 10690 10693 10697 10700 10703 10712 10722 10725 10725 10726 10728 10732 10737 10740 10744 10746 10750 10755 10758 10760 10763
10534 10530 10525 10519 10512 10505 10497 10490 10483 10476 10470 10463 10457 10452 10448 10444 10440 10438 10436 10434 10435 10437 10440 10445 10449 10457 10465 10474 10491 10495 10477 10478 10499 10513 10522 10529 10535 10543 10549 10555 10559 10562 10569 10576 10584 10591 10596 10601 10607 10614 10620 10626 10631 10634 10639 10646 10651 10655 10660 10664 10668 10672 10676 10679 10680 10681 10683 10686 10690 10692 10697 10704 10713 10718 10717 10717 10720 10723 10727 10731 10735 10739 10742 10745 10749 10752 10755 10757
10525 10520 10513 10506 10498 10489 10480 10471 10463 10456 10449 10442 10437 10432 10428 10423 10419 10417 10415 10413 10414 10416 10419 10423 10428 10436 10444 10458 10475 10467 10451 10460 10481 10495 10509 10518 10523 10529 10535 10542 10547 10552 10558 10566 10574 10580 10586 10592 10599 10606 10612 10619 10623 10627 10634 10640 10645 10651 10655 10659 10663 10668 10673 10675 10675 10676 10679 10683 10685 10688 10697 10704 10707 10709 10709 10711 10715 10718 10722 10725 10729 10733 10736 10740 10744 10747 10749 10752
10515 10507 10498 10489 10480 10470 10461 10451 10442 10435 10429 10423 10418 10413 10409 10405 10401 10399 10396 10395 10396 10397 10400 10401 10407 10414 10423 10443 10450 10436 10431 10444 10462 10478 10491 10503 10510 10514 10522 10530 10536 10543 10548 10555 10563 10570 10577 10584 10592 10598 10605 10612 10616 10622 10628 10633 10638 10644 10649 10655 10659 10665 10669 10669 10669 10672 10675 10678 10680 10685 10696 10700 10699 10702 10705 10707 10710 10713 10717 10719 10723 10728 10731 10734 10738 10741 10743 10745
10502 10492 10482 10472 10462 10452 10443 10433 10424 10418 10411 10406 10401 10396 10392 10388 10385 10382 10379 10379 10379 10380 10381 10382 10388 10393 10406 10423 10418 10408 10416 10426 10441 10459 10471 10485 10494 10499 10510 10519 10526 10533 10538 10544 10553 10561 10569 10577 10584 10591 10598 10604 10609 10615 10622 10628 10633 10639 10646 10653 10657 10661 10665 10663 10664 10668 10670 10673 10675 10683 10694 10693 10692 10697 10700 10703 10705 10708 10712 10714 10718 10722 10725 10729 10732 10734 10737 10738
10488 10477 10466 10455 10445 10436 10427 10418 10409 10403 10396 10391 10386 10381 10376 10373 10369 10366 10363 10362 10364 10365 10364 10366 10370 10376 10389 10397 10388 10389 10400 10403 10416 10438 10452 10466 10476 10485 10497 10507 10515 10520 10526 10534 10543 10553 10561 10569 10576 10582 10590 10597 10603 10610 10616 10622 10628 10636 10643 10649 10653 10656 10659 10658 10659 10663 10664 10667 10673 10682 10689 10687 10686 10693 10696 10698 10701 10703 10707 10709 10712 10716 10719 10722 10725 10728 10730 10732
10474 10462 10451 10441 10431 10423 10413 10404 10397 10390 10383 10378 10373 10368 10363 10359 10355 10351 10348 10348 10351 10350 10349 10352 10355 10362 10369 10369 10367 10373 10378 10379 10395 10416 10431 10446 10459 10471 10483 10494 10502 10507 10514 10524 10535 10545 10553 10561 10568 10575 10583 10591 10597 10602 10609 10618 10627 10635 10641 10646 10649 10651 10653 10653 10654 10658 10659 10664 10671 10677 10683 10681 10681 10688 10692 10694 10696 10698 10702 10705 10707 10710 10714 10716 10719 10723 10725 10727
10460 10448 10438 10428 10418 10410 10401 10393 10386 10379 10373 10367 10362 10357 10352 10347 10343 10339 10336 10336 10338 10336 10336 10339 10342 10346 10348 10348 10352 10355 10358 10365 10381 10397 10412 10428 10442 10456 10469 10480 10490 10496 10504 10516 10528 10537 10545 10553 10560 10567 10577 10585 10592 10599 10608 10619 10626 10630 10635 10639 10643 10644 10648 10649 10649 10652 10654 10659 10666 10672 10677 10675 10676 10683 10687 10689 10692 10695 10698 10700 10703 10706 10709 10712 10716 10718 10720 10722
10447 10436 10426 10416 10407 10399 10390 10382 10375 10369 10363 10356 10351 10346 10342 10337 10332 10329 10326 10326 10327 10323 10324 10328 10329 10331 10332 10335 10339 10340 10348 10358 10367 10380 10396 10411 10426 10443 10457 10467 10478 10486 10495 10508 10520 10529 10537 10545 10553 10563 10575 10584 10591 10597 10605 10613 10617 10620 10624 10629 10633 10635 10639 10640 10639 10643 10648 10653 10661 10668 10671 10669 10671 10677 10682 10685 10688 10691 10694 10697 10700 10703 10706 10709 10712 10713 10715 10716
10436 10425 10415 10405 10396 10388 10379 10372 10366 10360 10353 10346 10341 10336 10332 10327 10323 10319 10315 10317 10318 10313 10314 10317 10318 10319 10321 10325 10328 10333 10343 10350 10356 10370 10385 10398 10413 10430 10443 10454 10466 10475 10486 10501 10512 10520 10527 10537 10550 10562 10572 10578 10584 10588 10595 10602 10607 10610 10615 10621 10625 10628 10632 10632 10631 10636 10642 10649 10656 10662 10664 10664 10667 10673 10677 10681 10684 10688 10691 10694 10696 10699 10702 10704 10706 10708 10710 10712
10427 10416 10405 10395 10387 10379 10370 10363 10357 10351 10344 10338 10333 10328 10323 10319 10316 10312 10307 10306 10308 10306 10305 10308 10308 10309 10311 10315 10320 10327 10335 10341 10349 10361 10374 10387 10400 10416 10430 10442 10454 10466 10479 10491 10500 10507 10517 10533 10547 10556 10561 10566 10572 10578 10585 10593 10598 10602 10608 10614 10619 10623 10625 10625 10626 10632 10639 10645 10652 10656 10660 10662 10664 10669 10674 10679 10683 10685 10688 10690 10692 10695 10698 10700 10702 10704 10707 10711
10419 10407 10396 10387 10379 10371 10363 10355 10349 10342 10336 10330 10326 10321 10316 10312 10309 10306 10302 10298 10298 10299 10298 10299 10300 10300 10302 10307 10313 10318 10322 10329 10336 10345 10361 10376 10388 10402 10415 10428 10443 10455 10466 10477 10487 10500 10515 10531 10540 10545 10551 10558 10564 10570 10576 10585 10591 10595 10601 10608 10614 10617 10617 10618 10622 10628 10635 10642 10648 10653 10657 10659 10660 10666 10672 10677 10680 10682 10684 10686 10688 10692 10695 10697 10699 10702 10706 10709
10411 10400 10389 10379 10372 10365 10357 10348 10341 10335 10329 10323 10319 10314 10310 10305 10302 10299 10297 10293 10291 10291 10291 10292 10292 10293 10296 10300 10306 10307 10309 10315 10321 10331 10351 10366 10375 10386 10399 10414 10429 10440 10453 10467 10483 10499 10513 10525 10530 10536 10543 10550 10558 10564 10570 10579 10585 10590 10596 10602 10608 10611 10611 10614 10618 10624 10632 10639 10645 10650 10653 10655 10658 10664 10670 10674 10676 10678 10681 10682 10685 10689 10692 10694 10697 10700 10703 10704
10405 10395 10384 10374 10365 10359 10351 10343 10335 10329 10323 10318 10313 10309 10304 10299 10296 10293 10290 10288 10285 10285 10285 10286 10286 10287 10290 10294 10298 10299 10303 10308 10313 10327 10347 10356 10361 10372 10385 10400 10415 10429 10446 10463 10477 10490 10502 10512 10518 10526 10535 10543 10551 10558 10565 10575 10582 10586 10592 10598 10603 10605 10605 10607 10611 10618 10626 10633 10640 10645 10649 10653 10657 10662 10667 10670 10673 10676 10677 10679 10683 10686 10688 10691 10694 10697 10698 10698
10400 10390 10380 10369 10360 10352 10346 10338 10331 10324 10318 10313 10308 10304 10300 10294 10290 10287 10284 10282 10280 10279 10279 10280 10280 10282 10284 10288 10291 10294 10298 10303 10309 10323 10337 10342 10348 10360 10373 10386 10403 10420 10438 10452 10465 10478 10491 10500 10507 10517 10527 10536 10545 10553 10561 10570 10577 10581 10588 10593 10596 10598 10598 10600 10607 10615 10623 10631 10637 10641 10647 10652 10655 10659 10663 10666 10670 10672 10673 10676 10679 10682 10686 10689 10691 10692 10692 10692
10396 10385 10376 10366 10356 10347 10340 10334 10327 10320 10313 10308 10303 10299 10295 10291 10286 10283 10280 10278 10276 10274 10274 10274 10274 10276 10279 10282 10286 10289 10292 10296 10304 10316 10324 10329 10339 10351 10363 10376 10393 10409 10426 10441 10455 10469 10482 10492 10499 10509 10520 10529 10539 10547 10555 10563 10570 10576 10582 10586 10589 10591 10592 10596 10605 10614 10622 10629 10632 10637 10644 10648 10651 10655 10658 10661 10665 10667 10669 10673 10676 10679 10683 10685 10686 10686 10686 10686
10392 10381 10371 10362 10353 10344 10336 10329 10322 10316 10310 10304 10299 10294 10291 10287 10282 10279 10276 10273 10272 10270 10269 10269 10270 10271 10274 10278 10281 10284 10286 10291 10301 10311 10316 10322 10332 10345 10357 10371 10385 10399 10414 10429 10444 10460 10474 10484 10493 10504 10514 10524 10534 10543 10550 10558 10566 10571 10575 10579 10582 10584 10587 10594 10602 10611 10619 10623 10626 10633 10640 10643 10647 10650 10653 10656 10660 10663 10667 10670 10673 10675 10678 10679 10680 10680 10680 10682
10388 10377 10367 10358 10351 10343 10334 10326 10319 10313 10307 10301 10296 10291 10287 10283 10279 10276 10273 10270 10268 10266 10265 10265 10266 10268 10270 10273 10276 10278 10281 10288 10298 10304 10308 10315 10325 10338 10350 10364 10377 10391 10405 10421 10440 10457 10468 10478 10488 10498 10509 10520 10530 10537 10543 10551 10559 10563 10566 10572 10575 10577 10581 10590 10598 10606 10613 10617 10624 10632 10636 10640 10645 10647 10649 10654 10658 10662 10665 10667 10668 10670 10672 10674 10674 10674 10676 10680
10385 10374 10364 10355 10347 10340 10332 10324 10317 10310 10304 10298 10293 10288 10284 10280 10276 10272 10270 10267 10265 10264 10263 10262 10263 10265 10266 10269 10271 10274 10278 10285 10293 10298 10303 10311 10321 10332 10343 10354 10366 10378 10394 10414 10433 10446 10457 10470 10480 10490 10503 10515 10524 10529 10535 10545 10552 10554 10558 10565 10569 10572 10578 10587 10595 10603 10609 10616 10623 10629 10632 10638 10641 10643 10647 10652 10657 10660 10660 10660 10661 10664 10667 10669 10669 10670 10673 10675
10383 10372 10362 10352 10344 10337 10329 10321 10314 10308 10302 10296 10291 10285 10281 10277 10274 10270 10267 10265 10263 10261 10260 10260 10260 10261 10263 10265 10267 10270 10275 10281 10288 10292 10297 10307 10315 10324 10335 10346 10356 10368 10385 10405 10421 10434 10446 10459 10469 10482 10495 10506 10513 10519 10528 10537 10541 10545 10553 10560 10564 10568 10576 10585 10593 10600 10607 10615 10621 10625 10629 10633 10637 10640 10646 10650 10652 10652 10652 10654 10657 10660 10663 10663 10664 10666 10669 10671
10381 10370 10360 10350 10342 10334 10327 10319 10312 10306 10300 10295 10289 10284 10279 10274 10271 10268 10265 10262 10260 10259 10258 10257 10258 10258 10260 10262 10264 10267 10271 10277 10283 10286 10292 10302 10311 10319 10329 10341 10352 10365 10379 10396 10413 10428 10439 10450 10462 10476 10489 10498 10505 10512 10521 10528 10533 10541 10549 10555 10560 10566 10574 10583 10590 10597 10607 10614 10617 10621 10625 10630 10635 10639 10643 10646 10646 10646 10649 10651 10654 10656 10657 10658 10659 10663 10665 10668
10379 10368 10358 10349 10340 10332 10324 10317 10311 10305 10299 10294 10288 10282 10277 10273 10269 10265 10263 10260 10258 10257 10256 10256 10256 10256 10258 10259 10261 10264 10268 10273 10277 10281 10289 10299 10308 10317 10327 10339 10351 10364 10379 10395 10411 10424 10436 10448 10460 10472 10482 10491 10499 10507 10514 10521 10529 10539 10547 10553 10559 10565 10573 10582 10590 10598 10606 10610 10612 10617 10622 10628 10634 10636 10638 10641 10642 10644 10647 10648 10650 10651 10652 10655 10658 10660 10663 10665
10379 10367 10357 10348 10340 10331 10323 10316 10309 10303 10298 10293 10287 10282 10277 10272 10268 10264 10261 10259 10257 10255 10255 10255 10254 10255 10256 10257 10259 10262 10265 10270 10274 10278 10286 10295 10304 10313 10322 10333 10345 10359 10376 10394 10409 10421 10433 10444 10455 10466 10477 10487 10496 10505 10515 10524 10533 10542 10549 10555 10560 10566 10574 10583 10590 10597 10603 10606 10609 10614 10620 10626 10631 10633 10635 10638 10638 10640 10642 10644 10646 10648 10649 10653 10655 10657 10659 10661
10379 10368 10358 10349 10340 10331 10323 10315 10308 10303 10297 10292 10287 10282 10276 10271 10267 10263 10260 10258 10256 10254 10254 10254 10254 10254 10254 10256 10258 10261 10264 10269 10273 10277 10284 10293 10301 10309 10318 10329 10341 10355 10370 10384 10400 10416 10430 10442 10455 10467 10478 10487 10496 10505 10515 10522 10529 10537 10544 10550 10557 10565 10574 10581 10588 10594 10599 10603 10606 10612 10619 10625 10628 10630 10632 10634 10635 10637 10639 10641 10643 10645 10647 10649 10651 10653 10655 10656
10381 10369 10358 10349 10340 10331 10323 10315 10309 10303 10297 10292 10286 10281 10276 10272 10267 10263 10260 10257 10255 10254 10253 10253 10253 10253 10254 10255 10257 10260 10263 10266 10270 10275 10283 10291 10300 10309 10319 10329 10341 10354 10367 10379 10393 10408 10424 10440 10454 10465 10475 10483 10491 10500 10505 10509 10517 10527 10537 10545 10554 10562 10569 10575 10582 10589 10594 10598 10602 10609 10617 10622 10624 10626 10627 10629 10632 10634 10636 10638 10640 10642 10644 10646 10647 10648 10649 10650
10381 10370 10359 10350 10341 10332 10324 10316 10309 10303 10298 10292 10286 10281 10276 10271 10267 10264 10261 10258 10255 10254 10253 10252 10252 10253 10254 10255 10257 10259 10261 10265 10269 10275 10282 10290 10298 10308 10317 10328 10339 10351 10364 10379 10391 10404 10419 10434 10444 10455 10467 10476 10484 10491 10497 10505 10515 10526 10535 10545 10552 10557 10563 10571 10577 10583 10589 10593 10598 10606 10612 10617 10620 10621 10622 10625 10628 10630 10633 10635 10637 10638 10640 10642 10643 10643 10644 10646
10381 10371 10361 10351 10341 10333 10325 10318 10311 10304 10298 10292 10287 10281 10276 10271 10267 10264 10261 10258 10256 10254 10253 10253 10252 10253 10254 10256 10257 10259 10261 10264 10268 10274 10281 10288 10297 10305 10314 10325 10337 10349 10361 10374 10388 10403 10417 10429 10438 10450 10461 10469 10476 10483 10490 10500 10513 10524 10535 10542 10545 10550 10560 10568 10574 10581 10587 10591 10597 10603 10609 10613 10617 10617 10617 10621 10625 10627 10630 10632 10633 10636 10637 10638 10638 10639 10641 10643
10382 10372 10362 10352 10342 10334 10326 10320 10313 10306 10299 10293 10288 10282 10277 10272 10268 10265 10262 10259 10256 10254 10254 10254 10253 10253 10254 10256 10258 10260 10262 10265 10268 10274 10281 10288 10296 10304 10313 10324 10336 10347 10357 10368 10382 10395 10408 10419 10431 10443 10452 10459 10468 10476 10485 10496 10508 10520 10529 10533 10538 10549 10559 10564 10572 10579 10585 10590 10595 10600 10606 10611 10614 10614 10613 10618 10622 10624 10626 10629 10631 10632 10632 10632 10633 10635 10638 10640
10383 10373 10362 10353 10344 10335 10328 10322 10315 10308 10301 10295 10289 10283 10278 10274 10270 10267 10263 10260 10257 10255 10255 10255 10254 10254 10255 10257 10258 10260 10263 10266 10269 10274 10281 10288 10295 10303 10312 10323 10333 10343 10353 10364 10376 10388 10400 10413 10424 10434 10443 10452 10462 10473 10486 10498 10508 10516 10522 10527 10536 10546 10553 10560 10569 10577 10582 10587 10592 10597 10603 10609 10611 10610 10609 10614 10618 10621 10624 10626 10627 10627 10627 10628 10630 10633 10635 10638
10381 10371 10362 10353 10345 10337 10330 10322 10316 10309 10303 10296 10290 10284 10279 10276 10272 10269 10266 10263 10259 10257 10256 10256 10256 10256 10257 10258 10260 10262 10265 10268 10271 10275 10281 10288 10295 10302 10311 10320 10330 10339 10349 10359 10371 10383 10396 10408 10418 10427 10438 10451 10465 10477 10487 10496 10505 10514 10521 10528 10536 10544 10549 10558 10567 10573 10579 10584 10589 10594 10600 10605 10607 10605 10605 10610 10615 10618 10620 10622 10623 10623 10623 10625 10628 10630 10633 10635
10378 10370 10361 10353 10346 10338 10331 10323 10316 10310 10304 10297 10291 10287 10283 10279 10275 10271 10268 10265 10262 10259 10259 10259 10258 10257 10258 10260 10262 10264 10266 10270 10273 10277 10282 10288 10295 10303 10311 10319 10327 10336 10347 10359 10370 10380 10392 10403 10414 10427 10443 10457 10468 10474 10478 10487 10498 10509 10518 10526 10535 10543 10549 10557 10565 10571 10577 10581 10586 10592 10597 10602 10602 10600 10601 10607 10611 10614 10616 10618 10618 10619 10620 10623 10625 10627 10630 10632
10380 10371 10363 10355 10346 10339 10333 10326 10318 10312 10307 10301 10295 10290 10286 10281 10278 10274 10271 10268 10266 10262 10261 10261 10261 10261 10261 10262 10264 10266 10268 10271 10275 10280 10285 10290 10296 10303 10310 10317 10326 10335 10346 10358 10367 10377 10389 10401 10414 10430 10443 10452 10457 10461 10469 10481 10491 10501 10510 10520 10530 10539 10548 10556 10563 10568 10573 10578 10584 10589 10594 10597 10598 10596 10597 10603 10608 10610 10613 10614 10615 10615 10617 10619 10621 10623 10626 10628
10384 10374 10365 10357 10348 10340 10333 10326 10319 10314 10309 10304 10298 10293 10288 10284 10281 10277 10274 10272 10270 10266 10264 10264 10264 10264 10264 10265 10267 10269 10271 10274 10278 10282 10287 10293 10298 10304 10310 10316 10325 10334 10344 10352 10362 10375 10387 10399 10413 10424 10430 10436 10443 10452 10462 10473 10484 10496 10507 10517 10527 10537 10544 10552 10558 10563 10570 10576 10581 10586 10590 10593 10593 10592 10594 10599 10604 10606 10609 10611 10611 10612 10613 10615 10617 10619 10621 10623
10388 10379 10368 10359 10351 10342 10333 10326 10320 10314 10309 10304 10299 10294 10290 10286 10283 10280 10277 10275 10273 10271 10268 10266 10267 10267 10268 10268 10270 10273 10275 10277 10280 10285 10290 10295 10301 10306 10312 10318 10325 10333 10342 10350 10360 10372 10383 10395 10406 10413 10418 10424 10431 10441 10455 10470 10485 10499 10509 10517 10526 10532 10538 10545 10553 10561 10568 10573 10578 10583 10587 10589 10589 10588 10591 10596 10600 10603 10605 10606 10606 10607 10609 10610 10613 10615 10617 10619
10388 10381 10373 10363 10353 10344 10335 10328 10323 10317 10312 10307 10302 10297 10293 10289 10286 10283 10281 10278 10276 10274 10272 10270 10270 10270 10272 10272 10274 10276 10279 10281 10284 10287 10291 10297 10303 10307 10313 10319 10325 10332 10341 10349 10358 10367 10377 10387 10397 10406 10419 10431 10442 10455 10471 10486 10498 10506 10511 10517 10524 10530 10536 10543 10551 10559 10565 10570 10576 10580 10582 10585 10585 10585 10587 10593 10596 10599 10601 10601 10602 10603 10605 10607 10608 10610 10612 10614
10387 10381 10374 10365 10357 10348 10340 10333 10327 10321 10315 10310 10305 10301 10297 10293 10289 10286 10284 10282 10280 10277 10276 10274 10274 10274 10275 10276 10278 10281 10283 10285 10288 10292 10295 10298 10303 10308 10312 10319 10326 10334 10342 10350 10359 10368 10378 10387 10398 10412 10428 10443 10458 10473 10485 10493 10500 10507 10512 10518 10524 10530 10535 10542 10549 10556 10561 10567 10572 10575 10578 10580 10581 10581 10584 10589 10592 10595 10596 10597 10597 10599 10601 10602 10604 10606 10608 10610
10390 10382 10375 10366 10359 10351 10344 10336 10330 10324 10319 10313 10309 10305 10301 10297 10293 10289 10287 10285 10283 10281 10279 10277 10277 10278 10279 10280 10281 10283 10286 10288 10291 10294 10297 10299 10303 10308 10313 10320 10328 10336 10344 10353 10363 10372 10382 10394 10407 10421 10432 10441 10452 10463 10474 10483 10492 10500 10507 10514 10521 10527 10533 10540 10548 10553 10557 10562 10566 10570 10573 10576 10577 10578 10581 10585 10588 10591 10592 10593 10594 10595 10597 10598 10600 10602 10604 10606
10393 10385 10377 10368 10360 10353 10346 10338 10332 10326 10321 10316 10312 10308 10304 10300 10296 10292 10289 10287 10286 10284 10282 10281 10280 10281 10283 10283 10284 10285 10288 10290 10293 10295 10298 10301 10304 10309 10315 10322 10330 10339 10348 10357 10367 10378 10388 10400 10412 10423 10432 10440 10448 10455 10464 10475 10484 10491 10499 10508 10517 10525 10532 10539 10545 10549 10554 10558 10562 10565 10569 10571 10574 10575 10578 10581 10584 10587 10588 10590 10591 10591 10593 10595 10597 10599 10601 10602
10391 10384 10378 10371 10363 10356 10349 10342 10336 10330 10324 10319 10315 10310 10306 10302 10299 10296 10292 10290 10289 10287 10286 10284 10284 10284 10285 10286 10286 10288 10290 10292 10295 10297 10301 10304 10308 10313 10320 10327 10334 10342 10351 10362 10372 10382 10392 10403 10412 10420 10429 10438 10447 10456 10463 10471 10479 10487 10496 10504 10513 10521 10528 10535 10540 10544 10549 10554 10559 10562 10565 10567 10570 10573 10575 10577 10580 10583 10585 10586 10587 10587 10589 10591 10594 10595 10597 10599
10391 10384 10379 10373 10365 10358 10350 10344 10338 10332 10327 10323 10319 10314 10309 10305 10302 10299 10296 10293 10291 10290 10289 10287 10286 10286 10287 10288 10289 10290 10292 10294 10297 10300 10303 10307 10312 10317 10324 10330 10337 10344 10353 10364 10374 10383 10392 10401 10409 10418 10427 10436 10445 10455 10464 10471 10478 10485 10493 10501 10509 10516 10522 10529 10535 10541 10546 10552 10556 10560 10561 10564 10568 10570 10572 10573 10576 10578 10581 10582 10583 10583 10585 10587 10590 10591 10593 10596
10395 10388 10381 10374 10367 10359 10353 10346 10340 10334 10329 10324 10319 10315 10311 10307 10305 10302 10299 10296 10293 10292 10291 10290 10289 10289 10289 10291 10291 10293 10295 10297 10299 10302 10306 10311 10316 10321 10326 10332 10340 10349 10357 10365 10374 10382 10390 10399 10408 10417 10425 10434 10444 10454 10462 10469 10475 10482 10491 10500 10508 10515 10521 10526 10532 10537 10543 10549 10553 10556 10558 10561 10565 10567 10568 10570 10571 10573 10576 10577 10578 10579 10580 10583 10585 10587 10589 10592
10395 10389 10382 10375 10369 10362 10355 10349 10343 10337 10331 10326 10322 10319 10315 10311 10308 10305 10302 10299 10296 10294 10293 10293 10292 10291 10292 10293 10294 10295 10297 10299 10302 10305 10309 10314 10319 10324 10329 10336 10344 10352 10359 10366 10374 10382 10391 10400 10409 10417 10425 10435 10444 10452 10458 10465 10473 10482 10491 10499 10506 10513 10518 10523 10528 10533 10539 10544 10549 10552 10554 10556 10560 10563 10565 10566 10567 10569 10570 10572 10574 10575 10576 10578 10580 10582 10584 10588